This is the latest recevied weather packets stored in our database for station/object SP9TWP-3. If no packets are shown the sender has not sent any weather packets the latest 10 day(s).
| Time | Temp. | Humidity | Pressure | Rain* | Wind** | Luminosity | Snow |
|---|---|---|---|---|---|---|---|
| 1777625154 | 16.67° C | 37% | 1025.2 hPa | - | - | - | - |
| 1777624254 | 16.67° C | 38% | 1025.2 hPa | - | - | - | - |
| 1777623354 | 16.67° C | 40% | 1025.6 hPa | - | - | - | - |
| 1777622454 | 15° C | 41% | 1025.6 hPa | - | - | - | - |
| 1777621553 | 15° C | 43% | 1025.8 hPa | - | - | - | - |
| 1777620653 | 15° C | 42% | 1025.6 hPa | - | - | - | - |
| 1777619753 | 14.44° C | 43% | 1025.6 hPa | - | - | - | - |
| 1777618853 | 14.44° C | 44% | 1025.6 hPa | - | - | - | - |
| 1777617953 | 13.33° C | 46% | 1025.6 hPa | - | - | - | - |
| 1777617052 | 12.78° C | 48% | 1025.6 hPa | - | - | - | - |
| 1777616152 | 12.22° C | 49% | 1025.7 hPa | - | - | - | - |
| 1777615252 | 11.67° C | 51% | 1025.7 hPa | - | - | - | - |
| 1777614352 | 11.67° C | 54% | 1025.7 hPa | - | - | - | - |
| 1777613452 | 10.56° C | 57% | 1025.7 hPa | - | - | - | - |
| 1777612552 | 10° C | 58% | 1025.7 hPa | - | - | - | - |
| 1777611651 | 8.89° C | 60% | 1025.6 hPa | - | - | - | - |
| 1777610751 | 8.89° C | 59% | 1025.7 hPa | - | - | - | - |
| 1777609851 | 8.33° C | 60% | 1025.7 hPa | - | - | - | - |
| 1777608951 | 8.33° C | 58% | 1025.7 hPa | - | - | - | - |
| 1777608051 | 7.78° C | 59% | 1025.5 hPa | - | - | - | - |
| 1777607151 | 7.78° C | 59% | 1025.7 hPa | - | - | - | - |
| 1777606250 | 7.78° C | 60% | 1025.7 hPa | - | - | - | - |
| 1777605350 | 8.33° C | 59% | 1025.6 hPa | - | - | - | - |
| 1777604450 | 8.33° C | 58% | 1025.8 hPa | - | - | - | - |
| 1777603550 | 8.33° C | 58% | 1025.7 hPa | - | - | - | - |
* Rain since midnight (hover to see other rain measurements)
** Current wind speed in m/s (hover to see current wind gust speed)